Lid_Strength_Index
5 5 5 6 6 7 7 7 7 6 5 6 7 8 8 7 7 7 7 7 8 7 7 6 6 6 7 7 7 7 7 7 8 7 6 5 4 5 4 4 4 4 4
6 7 7 8 9 8 9 8 7 6 6 6 7 8 8 8 7 7 7 7 7 7 7 7 7 7 6 6 6 6 6 6 7 8 6 6 5 4 5 4 5 4 4
7 7 7 6 7 8 7 7 6 7 7 8 7 7 8 7 6 6 6 6 6 6 7 7 6 6 6 6 6 6 6 6 6 7 7 6 5 5 4 4 4 4 4
7 6 6 6 6 7 8 7 6 6 6 7 6 6 6 6 5 5 4 4 5 5 5 5 5 5 5 5 5 5 5 5 5 5 6 6 5 4 4 5 5 5 5
6 6 5 5 5 6 7 7 7 7 7 6 5 5 5 5 5 5 4 4 4 4 4 4 4 4 5 5 5 4 4 4 5 5 5 5 5 5 5 5 6 6 4
6 6 5 5 5 6 6 6 5 6 6 6 5 5 4 4 6 6 5 3 3 3 3 3 2 3 3 4 4 4 4 4 4 5 5 5 5 5 4 5 5 6 8
6 6 5 5 5 5 5 5 5 4 4 4 3 2 2 2 4 5 5 3 2 1 1 2 2 2 2 2 3 3 3 3 3 3 4 4 4 4 4 5 5 6 7
5 5 4 4 5 5 4 4 3 3 3 2 2 1 1 1 3 4 3 1 1 0 0 1 1 1 2 3 4 3 3 3 2 3 3 3 4 4 4 5 5 5 5
5 5 4 4 4 4 4 3 2 1 1 1 0 0 -0 -0 2 3 3 0 0 0 0 1 1 2 3 5 4 4 4 3 3 3 3 3 4 4 4 5 6 6 7
5 4 4 3 3 2 1 1 -0 -0 -0 0 -0 -1 -0 -1 1 3 2 0 1 1 0 1 2 2 5 5 4 4 5 4 4 4 3 4 3 3 3 4 5 8 8
4 3 1 -0 -0 -1 -1 -1 -1 -0 -0 -0 -0 -1 -1 -1 -1 3 3 1 1 2 2 2 2 5 5 5 5 4 4 4 4 4 4 4 4 4 4 5 5 8 10
1 1 0 -0 -0 -0 -1 -0 -1 -0 0 0 0 0 -0 -1 1 2 4 5 3 2 3 3 2 6 6 5 5 5 5 5 5 5 5 5 5 6 6 6 6 7 8
-0 0 -0 -0 -0 -0 -0 -0 1 0 1 1 1 1 1 0 1 2 4 5 5 4 3 3 5 5 5 4 4 4 5 4 4 6 6 5 6 6 6 7 7 8 8
0 0 -0 0 0 -0 0 0 0 0 1 1 2 2 3 2 1 1 1 1 5 4 2 3 3 4 4 4 3 3 3 4 4 5 6 6 6 7 8 8 9 10 10
0 0 0 0 0 0 -0 0 0 0 2 2 2 1 2 3 4 6 6 4 3 4 5 3 3 3 4 4 4 4 4 4 4 5 6 7 7 8 8 8 9 10 11
1 1 1 1 0 0 1 1 4 4 4 5 6 4 3 4 7 6 6 6 6 6 5 4 4 4 4 4 5 5 4 5 5 5 6 7 8 8 9 9 9 10 12
1 0 0 1 0 1 0 1 2 2 4 4 5 5 6 8 6 6 6 6 6 6 4 4 4 4 4 5 5 5 5 5 4 5 6 7 9 9 10 10 10 10 11
-0 3 0 0 0 0 0 -0 1 1 2 2 4 4 6 6 6 6 6 6 3 4 3 4 4 4 5 5 5 5 5 5 5 6 6 7 9 10 10 10 9 10 11
0 0 -0 -0 -0 -0 -0 -0 0 0 0 1 0 5 5 6 6 6 5 2 3 3 4 4 4 4 4 5 5 5 5 6 6 6 6 8 9 10 11 10 10 11 10
-0 2 2 -0 -0 0 -0 1 -0 -0 0 0 1 1 1 2 2 2 2 2 3 3 3 3 3 4 4 5 5 5 6 6 6 6 6 7 8 10 11 11 10 10 9
-1 -1 6 0 1 1 0 -0 -0 0 1 1 1 2 8 3 2 2 2 2 2 2 3 3 3 4 4 5 5 5 6 6 6 7 6 7 8 10 11 11 11 10 9
-0 -0 0 0 -0 0 0 -0 0 0 1 1 1 2 8 2 2 2 2 2 2 2 2 3 3 4 4 5 5 6 6 6 6 6 6 7 8 10 11 11 11 11 10
-0 0 0 0 0 2 0 1 0 1 1 1 1 1 1 2 2 2 2 2 2 2 2 2 3 4 4 5 5 5 6 6 6 6 7 7 9 10 11 11 11 11 11
-0 0 0 0 0 0 1 1 1 4 2 1 1 2 2 2 3 3 2 2 3 2 2 2 3 4 4 5 5 5 5 6 6 7 7 9 10 10 10 11 11 11 11
-0 0 0 0 1 1 1 1 1 1 1 1 1 1 2 2 2 2 2 2 3 2 2 2 3 4 5 5 5 5 8 10 9 10 9 9 10 10 10 10 11 11 11
-0 0 0 1 1 1 1 1 1 1 2 2 2 1 1 2 2 1 2 2 2 2 2 3 3 4 5 5 5 10 10 10 9 10 9 10 10 10 10 10 11 11 11